Location: Lombard
(41.8800°N, 88.0080°W)
Time: 04:41:18
(UTC-06:00)

Tiros 1 despin weight - All Passes

Search period start: 28 January 2023 00:00
Search period end: 07 February 2023 00:00
Orbit: 589 x 636 km, 48.2° (Epoch: 27 January)

Date Brightness Start Highest point End Pass type
(mag) Time Alt. Az. Time Alt. Az. Time Alt. Az.
28 Jan - 00:03:24 10° WNW 00:07:49 72° SSW 00:12:10 10° SE night (unlit)
28 Jan - 01:46:15 10° W 01:48:37 14° SW 01:50:59 10° SSW night (unlit)
28 Jan - 17:31:34 10° SSW 17:35:48 39° SE 17:39:58 10° ENE visible
28 Jan - 19:12:41 10° W 19:17:08 58° NNW 19:21:33 10° ENE visible
28 Jan - 20:54:59 10° WNW 20:59:07 36° N 21:03:13 10° ENE visible
28 Jan - 22:36:45 10° WNW 22:41:08 55° NNE 22:45:26 10° E night (unlit)
29 Jan - 00:18:21 10° WNW 00:22:29 40° SW 00:26:35 10° SSE night (unlit)
29 Jan - 16:07:14 10° SSE 16:09:37 14° SE 16:11:59 10° E daylight
29 Jan - 17:45:56 10° SW 17:50:27 68° SSE 17:54:55 10° ENE visible
29 Jan - 19:27:46 10° W 19:32:05 43° NNW 19:36:21 10° ENE visible
29 Jan - 21:10:00 10° WNW 21:14:10 38° N 21:18:18 10° ENE visible
29 Jan - 22:51:33 10° WNW 22:56:00 82° NNE 23:00:23 10° ESE night (unlit)
30 Jan - 00:33:36 10° W 00:37:02 22° SW 00:40:26 10° S night (unlit)
30 Jan - 16:20:17 10° SSW 16:24:05 26° SE 16:27:51 10° E daylight
30 Jan - 18:00:41 10° WSW 18:05:13 76° NNW 18:09:44 10° ENE visible
30 Jan - 19:42:54 10° WNW 19:47:06 37° N 19:51:15 10° ENE visible
30 Jan - 21:24:52 10° WNW 21:29:10 45° NNE 21:33:25 10° E visible
30 Jan - 23:06:22 10° WNW 23:10:44 61° SW 23:15:03 10° SE night (unlit)
31 Jan - 00:49:57 10° WSW 00:51:27 12° SW 00:52:57 10° SSW night (unlit)
31 Jan - 16:34:17 10° SW 16:38:39 46° SE 16:42:59 10° ENE daylight
31 Jan - 18:15:39 10° W 18:20:06 52° NNW 18:24:30 10° ENE visible
31 Jan - 19:57:58 10° WNW 20:02:08 36° N 20:06:15 10° ENE visible
31 Jan - 21:39:40 10° WNW 21:44:06 62° NNE 21:48:27 10° ESE night (unlit)
31 Jan - 23:21:22 10° WNW 23:25:22 34° SW 23:29:19 10° SSE night (unlit)
01 Feb - 15:09:24 10° S 15:12:24 17° SE 15:15:24 10° E daylight
01 Feb - 16:48:46 10° SW 16:53:20 80° SSE 16:57:51 10° ENE daylight
01 Feb - 18:30:45 10° W 18:35:03 41° N 18:39:19 10° ENE visible
01 Feb - 20:12:55 10° WNW 20:17:09 39° N 20:21:20 10° E visible
01 Feb - 21:54:27 10° WNW 21:58:55 87° SSW 22:03:19 10° ESE night (unlit)
01 Feb - 23:36:46 10° W 23:39:50 19° SW 23:42:54 10° S night (unlit)
02 Feb - 15:22:50 10° SSW 15:26:53 31° SE 15:30:55 10° ENE daylight
02 Feb - 17:03:35 10° WSW 17:08:07 67° NNW 17:12:37 10° ENE daylight
02 Feb - 18:45:51 10° WNW 18:50:03 36° N 18:54:13 10° ENE visible
02 Feb - 20:27:45 10° WNW 20:32:07 49° NNE 20:36:25 10° E visible
02 Feb - 22:09:17 10° WNW 22:13:36 51° SW 22:17:52 10° SE night (unlit)
03 Feb - 13:59:37 10° SE 14:00:45 11° SE 14:01:55 10° ESE daylight
03 Feb - 15:36:59 10° SW 15:41:28 55° SE 15:45:55 10° ENE daylight
03 Feb - 17:18:35 10° W 17:23:01 48° NNW 17:27:23 10° ENE daylight
03 Feb - 19:00:52 10° WNW 19:05:05 37° N 19:09:14 10° ENE visible
03 Feb - 20:42:31 10° WNW 20:47:00 70° NNE 20:51:24 10° ESE visible
03 Feb - 22:24:20 10° W 22:28:10 28° SW 22:31:56 10° SSE night (unlit)
04 Feb - 14:11:41 10° S 14:15:09 21° SE 14:18:35 10° E daylight
04 Feb - 15:51:35 10° WSW 15:56:11 89° NNW 16:00:44 10° ENE daylight
04 Feb - 17:33:40 10° W 17:37:59 39° N 17:42:13 10° ENE visible
04 Feb - 19:15:46 10° WNW 19:20:05 42° NNE 19:24:19 10° E visible
04 Feb - 20:57:17 10° WNW 21:01:45 75° SSW 21:06:10 10° SE visible
04 Feb - 22:40:00 10° W 22:42:36 15° SW 22:45:11 10° S night (unlit)
05 Feb - 14:25:23 10° SSW 14:29:38 37° SE 14:33:52 10° ENE daylight
05 Feb - 16:06:26 10° WSW 16:10:59 60° NNW 16:15:28 10° ENE daylight
05 Feb - 17:48:44 10° WNW 17:52:59 36° N 17:57:08 10° ENE visible
05 Feb - 19:30:34 10° WNW 19:35:00 54° NNE 19:39:22 10° E visible
05 Feb - 21:12:09 10° WNW 21:16:24 43° SW 21:20:34 10° SE visible
06 Feb - 13:01:09 10° SSE 13:03:26 14° SE 13:05:44 10° ESE daylight
06 Feb - 14:39:40 10° SW 14:44:14 66° SSE 14:48:47 10° ENE daylight
06 Feb - 16:21:28 10° W 16:25:53 45° NNW 16:30:15 10° ENE daylight
06 Feb - 18:03:42 10° WNW 18:07:59 38° N 18:12:10 10° ENE visible
06 Feb - 19:45:18 10° WNW 19:49:50 79° NNE 19:54:16 10° ESE visible
06 Feb - 21:27:18 10° W 21:30:54 24° SW 21:34:27 10° S visible
